Flag for Canada Weather past 2 weeks in Campbell River, British Columbia, Canada

Now
55 °F

Partly sunny.


Feels Like: 54 °F
Forecast: 48 / 59 °F
Wind: 7 mph from East

Location: Campbell River Airport

Current Time: Sep 2, 2015 at 12:24:29 PM

Latest Report: Sep 2, 2015 at 12:00 PM


Visibility: 15 mi

Pressure: 29.81 "Hg

Humidity: 82%

Dew point: 50 °F

Location of Campbell RiverLocation

Historic Weather in Campbell River — Graph

°F

Campbell River temperature yesterday

Maximum temperature yesterday: 59 °F (at 2:00 PM)
Minimum temperature yesterday: 48 °F (at 7:00 AM)
Average temperature yesterday: 54 °F

Past Weeks' High & Low Weather Summary

 TemperatureHumidityPressure
High86 °F (Aug 18, 4:00 PM)100% (Aug 26, 7:00 AM)30.14 "Hg (Aug 26, 7:00 AM)
Low45 °F (Aug 25, 6:00 AM)28% (Aug 21, 4:00 PM)29.30 "Hg (Aug 29, 2:00 PM)
Average64 °F67%29.88 "Hg
* Reported Aug 18 11:00 AM — Sep 2 11:00 AM, Campbell River, Weather by CustomWeather, © 2015

Note: Actual official high and low records may vary slightly from our data, if they occured in-between our weather recording intervals... More about our weather records

Advertising

Campbell River weather history for previous 24 hours

 ConditionsComfort  
Time TempWeatherWind HumidityBarometerVisibility
11:00 AM
Wed, Sep 2
55 °FPartly sunny.No wind82%29.80 "Hg15 mi
10:00 AM52 °FBroken clouds.2 mph88%29.80 "Hg10 mi
9:00 AM50 °FMostly cloudy.No wind94%29.78 "Hg10 mi
8:00 AM48 °FMore clouds than sun.2 mph100%29.77 "Hg15 mi
7:00 AM48 °FLight rain. Passing clouds.No wind94%29.76 "Hg15 mi
6:00 AM48 °FLight rain. Low clouds.2 mph94%29.75 "Hg10 mi
9:00 PM
Tue, Sep 1
52 °FBroken clouds.3 mph94%29.68 "Hg15 mi
8:00 PM54 °FLight rain. Broken clouds.5 mph88%29.65 "Hg15 mi
7:00 PM55 °FLight rain. Mostly cloudy.5 mph88%29.66 "Hg10 mi
6:00 PM57 °FLight rain. Broken clouds.5 mph88%29.65 "Hg10 mi
5:00 PM57 °FLight rain. Broken clouds.13 mph88%29.64 "Hg10 mi
4:00 PM57 °FLight rain. Low clouds.12 mph82%29.66 "Hg8 mi
3:00 PM57 °FScattered showers. More clouds than sun.12 mph82%29.67 "Hg10 mi
2:00 PM59 °FMore clouds than sun.12 mph77%29.70 "Hg10 mi
1:00 PM57 °FMore clouds than sun.5 mph88%29.72 "Hg10 mi
12:00 PM57 °FLight rain. Mostly cloudy.5 mph88%29.74 "Hg8 mi
Weather by CustomWeather, © 2015

See weather overviewHow to use our weather pages